sat.trackr.live / text

‹ back to catalog

STARLINK-32828

NORAD 63045 · 2025-034S

PAYLOAD ACTIVE UNKNOWN

§ Identity

Operator
Country
US
Launch date
2025-02-18
Launch site
AFETR
Launch vehicle
Mass (kg)
RCS (m²)

Purposes: comms

External: N2YO · Heavens-Above · Gunter

§ Orbital elements

Epoch: 2026-09-21T21:28:54.802272Z

Period
93.85 min
Inclination
53.1584°
Eccentricity
0.0001124
Mean motion
15.34400184 rev/d
Perigee alt
461.9 km
Apogee alt
463.5 km
Semi-major
6,840.8 km
B*
3.8827e-4
RAAN
76.9342°
Arg perigee
87.0297°
Mean anomaly
273.0834°
Rev number
8,898

§ Raw data

STARLINK-328281 63045U 25034S   26264.89507873  .00012765  00000+0  38827-3 0  99902 63045  53.1584  76.9342 0001124  87.0297 273.0834 15.34400184 88988

JSON: /api/v1/satellites/63045 · /tle

For live sub-satellite position, see the globe view (requires WebGL).

§ Visibility from observer

Set your observer location to see the next 7 days of passes ≥ 10°. The values pass through the URL so the page stays shareable.

No JS? Fill the form by hand. The geolocation button needs JavaScript.